Lapse_Rate
6.5 6.5 6.5 6.6 6.6 6.6 6.6 6.7 6.7 6.7 6.7 6.7 6.8 6.9 6.9 7.0 7.0 7.0 7.1 7.1 7.0 7.0 7.0 7.0 7.0 7.0 6.9 6.9 6.9 7.0 6.9 6.9 6.9 6.9 7.0 7.1 7.1 7.1 7.1 7.3 7.2 7.0 7.1 7.1 7.2
6.4 6.5 6.5 6.5 6.5 6.5 6.5 6.6 6.6 6.7 6.7 6.7 6.7 6.8 6.8 6.9 7.0 7.1 7.1 7.1 7.1 7.1 7.0 7.0 6.9 6.9 6.8 6.8 6.7 6.8 7.0 6.8 6.9 6.9 6.9 6.9 6.9 7.2 7.1 7.4 7.2 7.2 6.9 7.0 7.1
6.3 6.4 6.5 6.5 6.4 6.4 6.4 6.5 6.5 6.6 6.7 6.8 6.8 6.8 6.8 6.8 6.9 7.0 7.0 6.9 6.8 6.8 6.8 6.8 6.7 6.7 6.6 6.7 6.6 6.8 6.9 7.0 6.8 6.8 6.9 6.9 7.0 7.2 7.3 7.7 7.5 7.4 7.2 6.9 7.0
6.3 6.3 6.4 6.4 6.4 6.4 6.5 6.5 6.6 6.6 6.7 6.7 6.8 6.7 6.8 6.8 6.8 6.7 6.7 6.7 6.7 6.6 6.7 6.7 6.7 6.6 6.6 6.6 6.6 6.7 6.8 6.9 6.9 6.7 6.8 6.8 7.0 7.0 7.0 7.3 7.7 7.0 6.9 6.7 6.7
6.4 6.4 6.4 6.4 6.4 6.4 6.5 6.6 6.6 6.6 6.7 6.7 6.7 6.7 6.7 6.7 6.6 6.6 6.6 6.6 6.6 6.5 6.5 6.6 6.6 6.6 6.6 6.6 6.7 6.7 6.8 6.9 6.9 6.9 6.8 6.9 7.2 7.3 7.0 7.1 6.8 7.1 6.8 6.6 6.7
6.4 6.4 6.4 6.4 6.4 6.4 6.4 6.5 6.5 6.5 6.5 6.6 6.6 6.6 6.7 6.8 6.7 6.7 6.6 6.6 6.5 6.5 6.5 6.4 6.4 6.4 6.3 6.3 6.4 6.5 6.6 6.7 6.8 6.7 6.8 7.1 7.0 7.2 6.9 7.0 6.7 6.6 6.4 6.6 6.9
6.5 6.5 6.5 6.4 6.4 6.4 6.3 6.4 6.3 6.3 6.4 6.4 6.5 6.5 6.6 6.7 6.6 6.6 6.6 6.6 6.5 6.4 6.4 6.3 6.3 6.3 6.4 6.3 6.3 6.3 6.4 6.5 6.6 6.6 6.6 6.6 7.0 7.2 7.1 6.9 6.8 6.4 6.3 6.3 6.6
6.5 6.5 6.5 6.5 6.5 6.4 6.4 6.3 6.3 6.3 6.3 6.4 6.5 6.5 6.6 6.8 6.7 6.6 6.6 6.6 6.6 6.5 6.4 6.2 6.1 6.1 6.1 6.0 5.9 6.0 6.0 6.4 6.6 6.6 6.4 6.2 6.9 6.7 6.8 6.7 6.6 6.5 6.3 6.3 6.6
6.6 6.5 6.5 6.5 6.5 6.4 6.4 6.3 6.3 6.4 6.4 6.4 6.5 6.5 6.7 7.0 6.9 6.8 6.7 6.7 6.6 6.5 6.4 6.2 5.9 5.9 6.0 5.8 5.8 5.8 5.8 6.1 6.4 6.3 6.0 5.7 6.0 6.9 6.7 6.2 6.0 6.4 6.6 6.8 6.8
6.5 6.5 6.4 6.4 6.4 6.4 6.4 6.4 6.3 6.3 6.5 6.5 6.5 6.4 6.8 7.0 6.9 6.8 6.8 6.7 6.6 6.5 6.3 6.2 6.0 6.0 6.2 5.9 5.7 5.8 5.7 5.8 6.2 6.1 5.6 5.6 5.5 6.4 6.5 6.1 6.3 6.6 6.8 6.9 6.8
6.3 6.3 6.2 6.2 6.2 6.3 6.3 6.3 6.3 6.3 6.5 6.6 6.3 6.4 6.4 6.7 6.6 6.6 6.6 6.6 6.5 6.3 6.2 6.0 5.7 6.4 6.5 5.9 5.6 5.7 5.6 5.6 6.1 6.2 5.5 5.9 5.7 6.5 6.4 6.4 6.9 7.0 6.9 6.6 6.4
6.2 6.2 6.2 6.1 6.1 6.2 6.2 6.3 6.3 6.1 6.2 6.4 6.3 6.2 6.2 6.3 6.4 6.5 6.5 6.3 6.2 6.0 5.8 5.5 5.5 6.3 5.7 5.6 5.5 5.5 5.5 5.6 5.7 5.9 5.2 5.5 6.0 6.2 6.7 6.8 6.8 7.0 6.9 6.6 6.4
6.1 6.1 6.1 6.1 6.2 6.3 6.2 6.2 6.2 6.0 5.7 6.2 6.2 6.1 6.2 6.1 6.2 6.3 6.4 6.0 5.9 5.7 5.7 5.4 5.5 5.5 5.6 5.6 5.6 5.4 5.5 5.7 5.6 5.7 5.3 5.4 5.6 6.5 6.6 6.7 6.6 6.6 6.8 6.5 6.4
5.9 6.2 6.1 5.9 6.0 6.2 6.3 6.3 6.2 6.0 5.5 5.4 6.4 6.1 6.2 6.2 5.7 6.2 6.1 5.6 5.4 5.4 5.2 4.7 5.3 5.4 5.5 5.4 5.4 5.4 5.8 5.7 5.6 5.3 5.5 5.4 4.8 5.7 6.6 6.6 6.7 6.6 6.6 6.4 6.3
5.8 6.0 6.3 5.9 6.0 6.2 6.4 6.4 6.3 6.1 4.5 5.7 5.5 5.9 6.0 6.2 5.8 5.8 5.7 5.2 5.0 5.2 5.1 5.3 5.3 5.6 5.5 6.1 5.4 5.7 5.7 5.8 5.6 5.4 4.8 5.3 5.1 4.8 6.1 6.7 6.8 6.6 6.8 6.8 6.9
5.6 5.7 5.9 5.7 5.7 6.1 6.1 5.9 5.7 5.8 4.2 5.5 5.6 6.2 5.8 5.8 5.4 5.4 5.6 5.3 5.0 4.6 4.8 5.2 5.5 5.8 5.9 6.0 5.9 5.9 6.0 5.9 5.7 5.5 3.8 5.6 5.7 5.0 5.8 6.5 6.6 6.6 6.8 6.9 6.9
5.4 5.6 5.5 5.8 6.0 5.8 5.6 5.4 5.4 5.1 4.9 5.4 5.8 6.4 6.3 5.6 5.5 5.6 5.7 5.8 5.5 4.8 5.1 5.6 5.8 6.0 6.0 6.1 6.0 6.0 6.1 5.7 4.5 3.9 3.9 5.3 4.7 5.9 6.0 6.3 6.6 6.6 6.7 6.7 6.7
5.4 5.5 5.5 5.5 5.8 5.4 5.5 5.4 5.3 4.8 5.5 6.0 6.3 6.2 6.0 5.9 5.8 5.8 5.8 5.7 5.6 5.8 6.2 5.9 5.9 6.4 6.2 6.2 6.3 6.0 6.0 6.3 4.1 3.8 4.4 5.1 4.5 5.7 6.2 6.5 6.6 6.7 6.5 6.2 6.1
5.6 5.3 5.4 5.1 5.4 5.7 5.4 5.4 4.6 4.5 5.3 5.7 6.0 5.9 5.9 6.0 6.0 6.0 5.9 6.0 6.1 6.1 6.4 6.2 6.0 6.5 6.6 6.6 6.5 5.9 5.9 6.5 6.5 5.3 4.4 5.8 5.5 5.9 6.2 6.5 6.8 6.4 6.1 6.1 5.9
5.5 5.5 5.1 5.0 5.6 5.5 5.6 5.2 4.9 4.9 4.9 5.5 5.8 6.2 6.2 6.2 6.0 5.9 6.0 5.9 6.2 6.4 6.3 6.2 6.1 6.3 6.4 6.5 6.6 6.3 6.5 6.2 6.1 4.4 3.5 4.9 5.1 6.0 6.1 6.4 6.4 6.4 6.2 5.9 5.7
5.2 5.3 5.2 5.4 5.6 5.5 5.4 5.1 4.6 4.5 5.0 5.4 5.6 6.1 6.0 6.2 6.2 5.9 6.1 6.2 6.4 6.7 6.2 5.9 6.1 5.8 5.9 6.1 6.9 6.7 6.2 6.3 6.5 6.4 3.9 3.2 5.3 5.9 6.2 6.2 6.0 5.9 5.8 5.9 5.8
5.0 5.1 5.1 5.3 5.5 5.3 5.2 5.0 4.8 4.5 5.1 5.2 5.6 5.9 5.8 6.1 6.0 6.2 5.8 6.2 6.2 6.4 6.5 6.4 6.1 5.8 6.2 6.1 6.6 6.6 6.4 6.6 6.4 5.7 5.9 6.0 5.6 5.8 6.0 6.2 6.1 6.0 6.1 6.2 5.8
5.0 4.8 5.0 5.0 5.2 5.0 5.0 5.1 4.9 4.7 5.0 5.2 5.5 5.5 5.5 5.6 5.4 5.4 5.8 6.0 6.2 6.3 6.4 6.5 6.2 5.9 5.8 5.6 5.9 6.1 6.3 6.4 6.4 6.3 6.1 5.7 5.5 6.0 6.0 6.0 6.4 6.4 6.3 6.2 6.1
4.7 5.0 4.8 4.7 4.8 5.0 4.9 4.9 4.9 4.9 5.2 5.2 5.4 5.5 5.4 5.4 5.2 5.4 5.7 6.1 6.2 6.0 6.0 6.2 6.2 6.2 5.9 6.3 6.2 6.0 5.9 6.0 5.9 5.9 6.0 5.9 6.1 6.0 6.1 6.4 6.5 6.4 6.5 6.6 6.5
5.0 4.9 5.0 4.7 4.7 4.8 4.8 4.8 4.8 4.9 5.0 5.1 5.2 5.3 5.4 5.4 5.4 5.3 5.7 6.1 6.0 5.8 5.6 5.7 5.8 5.9 6.0 6.2 6.4 6.3 6.2 6.0 5.9 6.2 6.0 6.0 5.9 6.3 6.7 6.8 6.7 6.5 6.3 6.4 6.3
5.4 5.4 5.1 5.0 5.2 4.9 4.8 4.7 4.9 4.9 4.8 5.2 5.5 5.5 5.6 5.5 5.6 6.0 6.0 6.0 5.8 5.7 5.6 5.7 5.7 5.7 5.8 6.0 6.0 5.7 5.7 5.4 5.4 5.6 5.7 5.9 6.0 6.6 7.0 7.2 7.0 7.1 7.0 6.8 7.0
5.5 5.7 5.4 5.0 5.2 4.9 4.9 5.1 5.4 5.3 5.2 5.3 5.3 5.8 5.5 5.6 5.9 5.7 5.4 5.5 5.5 5.8 5.6 5.7 5.7 5.5 5.4 5.5 5.5 5.1 5.4 5.9 6.0 6.2 6.4 6.4 7.0 7.3 7.3 7.3 7.1 7.0 7.1 7.0 6.9
Wind_Speed
4 5 5 7 8 8 9 9 10 11 11 12 12 13 14 14 13 0 3 3 2 8 3 2 3 4 4 3 3 3 4 1 3 2 2 4 6 1 3 2 3 2 1 4 4
3 4 5 6 8 8 9 9 11 12 13 13 13 13 13 14 2 3 3 2 1 9 3 3 2 3 3 2 3 4 4 7 3 2 2 4 1 4 4 7 2 2 7 4 3
4 4 5 5 7 8 9 10 12 13 14 14 13 12 12 10 4 2 4 1 4 4 3 2 4 3 2 2 1 2 4 5 4 4 1 2 3 2 3 3 7 7 8 7 5
6 6 6 5 6 8 9 11 13 13 15 14 12 11 10 2 3 1 2 3 5 4 3 3 3 3 2 1 1 0 4 3 2 3 1 3 3 5 4 9 0 7 6 5 9
9 8 8 7 7 8 9 11 12 14 16 12 10 9 2 1 6 2 4 6 6 3 3 4 4 4 3 2 0 2 3 3 6 6 5 1 6 5 9 12 6 5 9 10 9
11 10 9 8 9 9 10 11 13 14 14 11 9 6 1 3 1 3 6 4 3 3 3 4 5 5 3 2 3 3 3 6 7 8 3 4 3 3 6 3 9 9 9 9 11
13 12 10 10 10 10 12 12 13 13 11 9 3 0 1 9 2 3 3 2 4 2 3 1 2 3 3 0 2 1 5 8 6 2 5 6 0 7 8 7 8 8 8 8 10
14 13 12 11 10 11 12 14 15 11 6 3 3 0 6 1 1 2 2 3 3 3 3 1 2 4 1 1 6 3 3 4 4 2 1 3 7 6 6 7 5 8 8 9 12
15 14 13 12 11 11 13 15 14 3 2 2 1 1 7 1 2 2 1 4 4 3 4 3 3 3 4 4 4 5 3 4 8 2 2 3 5 7 4 7 7 7 7 8 9
16 15 14 12 10 9 13 10 2 2 1 1 1 2 2 4 3 3 2 4 4 4 4 5 5 3 3 4 5 6 4 5 5 0 3 3 8 12 8 4 8 8 7 8 10
18 17 16 12 9 6 5 2 2 2 1 8 5 3 3 1 1 2 2 4 3 4 5 1 4 7 13 11 3 2 4 4 3 5 1 6 5 12 8 9 8 7 7 8 8
19 18 16 12 8 4 1 2 3 2 6 8 5 5 2 4 3 3 4 5 4 5 5 4 7 13 4 5 5 2 2 5 6 4 3 6 10 3 7 5 5 8 7 7 5
20 19 17 12 5 1 4 4 4 3 1 6 5 4 4 7 5 7 9 4 4 6 8 8 6 5 7 4 5 4 5 5 8 3 1 3 6 2 5 8 10 8 6 6 6
22 21 18 8 2 3 4 6 6 1 2 6 5 4 3 6 3 1 5 5 3 11 6 5 4 4 4 5 7 4 8 7 3 3 4 1 5 6 5 5 5 5 6 6 6
25 23 21 20 3 3 2 12 7 3 5 3 3 1 2 5 6 1 1 2 6 6 7 7 5 4 5 8 6 7 4 4 2 2 3 4 1 6 6 3 5 5 5 6 5
26 26 21 9 1 2 11 8 2 3 10 5 5 6 5 2 2 3 2 3 2 3 1 6 2 4 6 3 6 5 4 6 4 3 1 7 7 4 5 3 6 5 6 6 6
27 28 19 10 7 14 8 3 2 7 0 6 5 6 5 6 4 5 6 6 6 5 6 1 4 2 2 5 3 4 5 2 4 2 5 3 1 7 4 5 10 12 9 8 7
29 26 21 14 12 19 4 3 9 7 8 4 6 5 8 8 5 6 7 5 6 3 4 7 3 8 4 6 6 6 7 5 7 3 4 2 6 5 1 4 9 11 9 7 8
28 11 9 13 21 11 7 10 11 8 6 9 4 5 5 6 6 5 8 6 9 12 7 6 4 2 3 2 5 5 5 3 5 2 3 4 4 2 3 4 4 6 7 9 8
11 11 9 20 24 10 12 21 10 6 8 5 12 8 11 8 8 8 10 5 5 9 1 5 2 1 1 2 3 4 6 4 2 2 5 4 5 5 7 10 7 7 9 8 8
3 3 2 22 11 7 12 10 6 5 5 8 10 7 7 8 9 7 7 1 5 6 6 5 4 2 3 5 8 2 2 3 3 5 6 2 6 5 11 13 14 11 9 9 8
3 3 1 11 9 2 13 7 5 7 3 3 4 4 9 8 7 7 11 7 8 9 9 5 4 4 8 1 1 3 7 7 5 6 3 1 12 5 6 11 11 10 10 7 6
4 1 1 2 8 3 3 3 2 4 5 5 3 4 2 7 5 7 6 2 6 8 10 8 1 2 6 4 2 4 4 4 4 4 7 6 6 3 4 7 8 8 7 7 9
4 2 1 1 1 6 7 5 5 2 2 3 5 3 4 4 3 7 6 2 2 2 5 3 5 8 13 6 5 5 5 5 5 3 4 12 5 2 4 7 6 7 6 8 8
2 4 5 5 5 6 11 8 12 8 5 7 4 10 10 6 5 6 4 3 4 4 3 4 5 2 1 4 4 3 5 9 8 7 11 8 12 6 10 9 8 8 7 7 7
2 3 0 3 13 15 11 12 15 14 9 5 9 14 11 7 7 8 8 4 5 2 5 1 2 3 2 2 1 5 7 9 10 7 8 9 18 7 5 6 5 7 7 7 8
2 0 3 3 10 13 13 18 17 16 5 3 14 6 15 15 3 3 3 5 6 9 7 6 6 4 7 2 3 8 12 15 10 6 8 11 17 2 6 7 7 8 8 8 7
Wind_Direction
29 11 8 2 358 1 358 352 348 346 341 335 335 336 336 336 325 197 271 262 301 163 117 113 41 28 39 61 54 111 60 176 243 149 275 329 12 271 311 247 1 273 187 286 313
344 342 345 349 344 345 345 343 341 339 338 334 332 333 333 337 322 277 289 353 58 149 91 107 76 39 34 32 25 85 113 216 223 179 273 311 336 338 7 332 295 317 310 304 341
289 302 315 325 327 330 332 333 334 335 335 330 328 330 332 331 347 277 355 1 150 138 93 85 83 65 54 27 304 153 186 197 247 213 184 273 284 175 294 287 238 284 316 319 334
260 272 285 296 307 316 324 330 330 331 333 329 329 329 329 313 303 19 355 106 143 147 99 102 64 94 107 215 226 318 253 231 275 156 344 255 292 309 224 252 13 1 304 355 38
263 266 273 281 292 306 317 325 330 332 333 332 330 335 340 15 254 40 92 113 116 131 137 136 137 141 176 199 145 193 281 294 272 281 240 319 253 235 261 258 36 55 45 40 41
263 265 270 276 287 300 313 324 330 330 333 329 324 329 115 235 121 127 117 111 128 124 135 129 180 191 159 205 171 188 271 278 282 270 259 228 256 138 277 20 56 65 56 43 37
262 265 266 272 282 296 309 317 320 324 326 325 295 303 131 242 87 143 121 116 159 141 132 147 178 120 125 302 331 324 324 328 266 268 214 156 80 228 248 27 50 64 58 49 39
255 258 265 267 279 294 310 316 313 313 327 4 137 272 242 24 114 128 120 73 76 58 107 131 128 105 97 106 18 22 47 347 292 165 38 138 266 277 300 74 65 88 60 46 32
248 249 255 263 277 297 312 314 314 271 95 91 343 108 267 96 144 166 151 140 94 51 38 79 72 91 40 89 6 4 236 218 314 341 89 133 276 266 334 38 83 83 66 55 36
241 245 247 253 268 297 315 315 41 120 251 240 268 5 217 220 148 132 48 114 108 93 45 57 56 83 51 104 225 206 214 239 233 221 40 293 261 275 303 117 112 98 74 61 49
238 240 242 244 259 294 347 3 333 295 212 194 194 231 129 73 125 77 142 96 87 64 153 44 118 205 203 200 198 165 187 227 267 261 318 255 248 274 320 79 104 98 85 71 53
230 231 235 237 248 283 131 218 221 147 300 231 227 270 176 178 119 205 127 144 151 175 115 59 219 230 135 179 205 218 244 260 274 266 164 280 275 11 32 45 103 106 88 78 67
220 222 227 228 241 228 205 227 149 147 255 286 200 185 194 150 212 205 152 149 158 148 192 177 213 156 169 166 161 210 189 222 221 353 269 325 289 167 50 82 80 71 81 72 70
213 214 218 197 209 179 219 170 160 158 282 256 216 236 118 135 237 98 194 148 189 195 171 237 256 182 168 199 148 224 208 205 203 127 224 79 275 300 139 113 85 107 104 106 91
208 208 210 185 157 177 219 144 127 70 283 206 170 117 146 167 132 325 311 56 169 176 136 235 181 175 187 214 157 236 117 154 118 131 57 301 295 259 124 180 177 161 145 134 123
204 205 200 203 203 241 144 118 90 95 243 194 137 160 136 168 146 121 120 54 144 144 215 235 263 183 206 83 150 137 88 53 57 112 293 223 184 266 187 191 162 173 161 154 148
202 201 187 170 207 170 145 122 163 210 18 190 183 165 177 167 178 159 165 171 159 138 216 234 219 195 165 94 77 98 80 327 333 358 230 137 144 247 301 315 185 163 172 177 168
200 196 204 205 178 150 153 163 214 196 199 117 138 117 177 159 214 173 141 190 236 191 127 166 252 167 190 190 175 176 157 168 224 211 255 43 234 253 309 343 133 156 163 162 177
197 206 206 202 172 165 182 210 214 170 190 144 98 140 219 207 161 152 193 199 201 186 174 151 264 127 170 146 148 187 170 165 93 57 45 233 296 266 74 44 100 152 173 194 191
208 208 208 162 171 180 206 210 217 187 147 155 178 176 181 191 161 185 178 204 199 188 50 197 133 159 136 111 25 159 167 90 42 282 255 256 264 223 206 197 191 202 219 213 201
135 191 135 160 160 196 207 219 192 223 178 168 188 165 201 173 179 192 195 242 185 157 136 145 124 226 115 199 185 141 191 68 132 155 191 254 253 212 196 181 187 200 214 221 216
156 213 205 151 185 204 220 182 180 173 149 171 139 153 175 174 170 203 199 211 176 147 159 192 136 168 196 230 338 285 196 165 190 240 258 164 259 8 163 178 174 191 211 218 218
125 106 340 282 198 185 143 185 198 155 168 150 188 216 167 163 177 189 190 355 168 154 160 180 189 53 345 7 22 225 206 151 102 74 202 192 259 17 93 147 189 190 212 220 212
121 134 289 226 101 176 197 202 194 261 219 146 161 99 117 188 234 175 173 57 46 58 28 136 160 178 230 190 134 178 197 180 149 171 178 234 265 202 193 190 197 230 250 237 221
155 173 180 183 218 205 185 190 198 194 211 178 188 201 185 195 179 171 134 118 47 66 90 143 218 120 219 158 144 212 197 182 192 212 213 230 225 185 202 210 220 235 246 253 215
160 148 280 187 196 191 191 194 203 196 171 199 218 197 207 196 195 187 132 162 189 107 151 125 162 89 313 295 15 264 226 199 231 234 250 265 270 248 172 212 201 211 214 214 223
24 255 85 178 183 184 200 208 210 193 193 159 213 191 213 215 205 67 105 122 150 157 167 149 133 126 238 66 66 284 224 213 219 199 210 227 246 141 222 198 217 220 200 207 208